Terug naar catalogus

EUTE 21B

ActiefCommunicatieGEO
NORAD 38992·PAYLOAD·🇪🇺 EU

Gelanceerd Nov 10, 2012 vanaf Guiana Space Centre

Loading…

TLE

VersSource: Space-Track

Epoch: Sep 14, 2026, 13:54 UTC

1 38992U 12062B   26257.57943436  .00000122  00000-0  00000-0 0  9990
2 38992   0.0691 350.6471 0002971 176.3915  56.7144  1.00270621 50726

Volg EUTE 21B in realtime met AllMySat

Download on the App Store